星链-30771 (STARLINK-30771 )

导读 | 星芒AI

STARLINK-30771 是 SpaceX 星链(Starlink)卫星互联网项目中的一颗低轨通信卫星。该卫星属于星链计划的第三批部署,旨在为全球用户提供高速、低延迟的互联网服务。它运行在约 550 公里的近地轨道,采用先进的推进和通信技术,支持全球范围内的宽带连接。作为星链星座的一部分,STARLINK-30771 有助于扩大卫星网络覆盖,特别是在偏远和网络基础设施薄弱的地区。

基本信息
目录编号:
58169
目录名称:
STARLINK-30771
国际标识:
2023-166V
轨道中心:
EARTH
卫星名称:
星链-30771
卫星全名:
星链-30771 (STARLINK-30771 )
卫星状态:
在轨 (已飞行782 天)
发射日期:
2023-10-29 UTC
国别 :
美国 (US)
星等 :
--
轨道信息
数据来源 国际轨道数据
星历时间: 2025-12-19T05:57:09+0800
20小时前
查看轨道信息
半长轴: 6853.307km
偏心率: 0.0001613
轨道倾角: 53.160°
近地点辐角 84.823°
升交点赤经 234.707°
平近点角 275.295°
近地点: 474.066km
远地点: 476.278km
周期: 94.104分钟
每日圈数: 15.302153
详细信息
固有亮度:
5
最大亮度:
0.3
卫星平台:
Starlink v2.0 mini
覆盖范围:
全球
运营商:
太空探索技术公司
运营商所在国:
美国
制造商(研发单位):
太空探索技术公司
制造商所在国:
美国
使用方式:
暂无
卫星简介
星链(Starlink)计划是由太空探索技术公司(SpaceX)提出的一个巨型低轨卫星互联网星座项目,计划在2019年至2024年间在太空搭建由约1.2万颗卫星组成的“星链”网络,其中1584颗将部署在地球上空550千米处的近地轨道,并从2020年开始工作。该卫星仍在工作。
2D轨道图
3D轨道图
轨道高度分析图
轨道倾角分析图
轨道综合分析图
查看轨道综合分析图